Location: Ostrava
(49.8330°N, 18.2830°E)
Time: 02:48:11
(UTC+02:00)

Lacrosse 5 - Visible Passes

Search period start: 21 June 2018 00:00
Search period end: 01 July 2018 00:00
Orbit: 716 x 723 km, 57.0° (Epoch: 18 June)

Date Brightness Start Highest point End Pass type
(mag) Time Alt. Az. Time Alt. Az. Time Alt. Az.
21 Jun 3.1 00:15:18 10° W 00:20:09 44° NNW 00:25:01 10° ENE visible
21 Jun 3.5 01:59:16 10° WNW 02:04:00 38° N 02:08:44 10° ENE visible
21 Jun 2.2 03:42:30 10° NW 03:47:35 72° NNE 03:52:38 10° ESE visible
21 Jun 2.1 21:38:55 10° SSW 21:43:46 48° SE 21:48:38 10° ENE visible
21 Jun 2.6 23:21:46 10° WSW 23:26:45 55° NNW 23:31:44 10° NE visible
22 Jun 3.5 01:05:48 10° WNW 01:10:29 36° N 01:15:11 10° ENE visible
22 Jun 2.8 02:49:17 10° NW 02:54:15 53° NNE 02:59:14 10° E visible
22 Jun 2.1 22:28:21 10° WSW 22:33:26 76° NNW 22:38:32 10° NE visible
23 Jun 3.4 00:12:14 10° WNW 00:16:59 38° N 00:21:44 10° ENE visible
23 Jun 3.2 01:56:00 10° WNW 02:00:51 43° NNE 02:05:41 10° E visible
23 Jun 1.8 03:39:05 10° WNW 03:44:11 80° SW 03:49:15 10° SE visible
23 Jun 1.8 21:35:10 10° SW 21:40:13 75° SE 21:45:18 10° ENE visible
23 Jun 3.1 23:18:40 10° W 23:23:31 44° NNW 23:28:22 10° ENE visible
24 Jun 3.4 01:02:38 10° WNW 01:07:21 38° N 01:12:05 10° ENE visible
24 Jun 2.2 02:45:52 10° NW 02:50:57 72° NNE 02:56:00 10° ESE visible
24 Jun 2.7 22:25:07 10° WSW 22:30:06 56° NNW 22:35:07 10° NE visible
25 Jun 3.5 00:09:10 10° WNW 00:13:51 36° N 00:18:33 10° ENE visible
25 Jun 2.7 01:52:38 10° NW 01:57:37 53° NNE 02:02:35 10° E visible
25 Jun 2.0 03:35:44 10° WNW 03:40:39 52° SW 03:45:33 10° SSE visible
25 Jun 3.4 23:15:36 10° WNW 23:20:20 38° N 23:25:06 10° ENE visible
26 Jun 3.2 00:59:21 10° WNW 01:04:12 43° NNE 01:09:02 10° E visible
26 Jun 1.8 02:42:27 10° WNW 02:47:33 80° SW 02:52:37 10° SE visible
26 Jun 3.2 22:22:01 10° W 22:26:52 44° NNW 22:31:44 10° ENE visible
27 Jun 3.4 00:05:59 10° WNW 00:10:43 38° N 00:15:27 10° ENE visible
27 Jun 2.1 01:49:14 10° NW 01:54:19 71° NNE 01:59:23 10° ESE visible
27 Jun 2.5 03:32:32 10° WNW 03:37:01 32° SW 03:41:29 10° SSE visible
27 Jun 3.5 23:12:31 10° WNW 23:17:13 36° N 23:21:55 10° ENE visible
28 Jun 2.7 00:56:01 10° NW 01:00:58 53° NNE 01:05:57 10° E visible
28 Jun 2.0 02:39:06 10° WNW 02:44:02 52° SW 02:48:55 10° SSE visible
28 Jun 3.4 22:18:57 10° WNW 22:23:42 38° N 22:28:27 10° ENE visible
29 Jun 3.1 00:02:43 10° WNW 00:07:34 43° NNE 00:12:23 10° E visible
29 Jun 1.8 01:45:49 10° WNW 01:50:54 81° SW 01:55:58 10° SE visible
29 Jun 3.1 03:29:39 10° W 03:33:15 20° SW 03:36:50 10° S visible
29 Jun 3.4 23:09:21 10° WNW 23:14:04 38° N 23:18:48 10° ENE visible
30 Jun 2.1 00:52:36 10° NW 00:57:41 71° NNE 01:02:44 10° ESE visible
30 Jun 2.5 02:35:54 10° WNW 02:40:23 33° SW 02:44:43 11° SSE visible
30 Jun 3.5 22:15:52 10° WNW 22:20:34 36° N 22:25:16 10° ENE visible
